Weather History for Naples, FL

Change the Weather History Date:

Monday, November 5, 2012

  Actual Average Record
Temperature  
Mean Temperature 71 °F 74 °F  
Max Temperature 77 °F 83 °F 89 °F (1959)
Min Temperature 65 °F 65 °F 37 °F (1955)
Degree Days  
Heating Degree Days 0 0  
Month to date heating degree days 0 0  
Since 1 July heating degree days 1 1  
Cooling Degree Days 6 9  
Month to date cooling degree days 27 49  
Year to date cooling degree days 3868 3644  
Growing Degree Days 20 (Base 50)    
Moisture  
Dew Point 65 °F    
Average Humidity 82    
Maximum Humidity 100    
Minimum Humidity 64    
Precipitation  
Precipitation 0.00 in 0.11 in 4.82 in (1998)
Month to date precipitation 0.01 0.54  
Year to date precipitation 36.04 48.94  
Snow  
Snow 0.00 in - - ()
Month to date snowfall 0.0  
Since 1 July snowfall 0.0  
Since 1 September snowfall 0.0  
Snow Depth 0.00 in    
Sea Level Pressure  
Sea Level Pressure 29.98 in    
Wind  
Wind Speed 2 mph (West)    
Max Wind Speed 9 mph    
Max Gust Speed 13 mph    
Visibility 9 miles    
Events      
T = Trace of Precipitation, MM = Missing Value Source: NWS Daily Summary

Daily Weather History Graph

Daily Weather History Graph

Search for Another Location

Airport:

Trip Planner

Search our weather history database for the weather conditions in past years. The results will help you decide how hot, cold, wet, or windy it might be!

Date:

Astronomy

Nov. 05, 2012 Rise Set
Actual Time 6:38 AM EST 5:42 PM EST
Civil Twilight 6:14 AM EST 6:06 PM EST
Nautical Twilight 5:47 AM EST 6:33 PM EST
Astronomical Twilight 5:20 AM EST 7:00 PM EST
Moon 11:17 PM EST (11/5) 11:56 AM EST (11/5)
Length of Visible Light 11h 51m
Length of Day
11h 03m
Waning Gibbous, 63% of the Moon is Illuminated
Nov 5
Waning Gibbous
Nov 6
Last Quarter
Nov 13
New
Nov 20
First Quarter
Nov 28
Full

Hourly Weather History & Observations

Time (EST) Temp. Dew Point Humidity Pressure Visibility Wind Dir Wind Speed Gust Speed Precip Events Conditions
12:53 AM 66.0 °F 64.0 °F 93% 30.01 in 10.0 mi SE 4.6 mph - N/A   Clear
1:53 AM 66.9 °F 64.0 °F 90% 30.01 in 10.0 mi Calm Calm - N/A   Clear
2:53 AM 66.9 °F 64.0 °F 90% 30.00 in 10.0 mi Calm Calm - N/A   Clear
3:53 AM 66.9 °F 64.0 °F 90% 30.00 in 9.0 mi Calm Calm - N/A   Clear
4:53 AM 64.9 °F 63.0 °F 93% 30.00 in 9.0 mi Calm Calm - N/A   Clear
5:53 AM 64.9 °F 63.0 °F 93% 30.01 in 8.0 mi Calm Calm - N/A   Clear
7:53 AM 66.9 °F 64.9 °F 93% 30.03 in 6.0 mi Calm Calm - N/A   Clear
8:53 AM 70.0 °F 66.0 °F 87% 30.02 in 6.0 mi Calm Calm - N/A   Clear
9:53 AM 73.0 °F 64.9 °F 76% 30.02 in 10.0 mi Calm Calm - N/A   Clear
10:53 AM 75.9 °F 63.0 °F 64% 30.02 in 10.0 mi Calm Calm - N/A   Partly Cloudy
11:53 AM 75.9 °F 64.0 °F 67% 30.00 in 10.0 mi West 3.5 mph - N/A   Clear
12:53 PM 75.9 °F 64.9 °F 69% 29.98 in 10.0 mi SW 6.9 mph - N/A   Clear
1:53 PM 75.9 °F 64.9 °F 69% 29.95 in 10.0 mi WSW 8.1 mph - N/A   Clear
2:53 PM 75.0 °F 64.9 °F 71% 29.95 in 10.0 mi West 6.9 mph - N/A   Clear
3:53 PM 73.9 °F 66.0 °F 76% 29.95 in 10.0 mi West 5.8 mph - N/A   Clear
4:53 PM 73.0 °F 66.0 °F 79% 29.95 in 10.0 mi WNW 5.8 mph - N/A   Clear
5:53 PM 73.0 °F 66.0 °F 79% 29.95 in 10.0 mi Calm Calm - N/A   Partly Cloudy
6:10 PM 71.6 °F 66.2 °F 83% 29.96 in 10.0 mi WNW 3.5 mph - N/A   Mostly Cloudy
6:53 PM 72.0 °F 66.9 °F 84% 29.96 in 10.0 mi Calm Calm - N/A   Clear
7:53 PM 72.0 °F 66.9 °F 84% 29.97 in 10.0 mi Calm Calm - N/A   Clear
8:53 PM 72.0 °F 66.9 °F 84% 29.98 in 10.0 mi Calm Calm - N/A   Clear
9:53 PM 70.0 °F 68.0 °F 93% 29.98 in 10.0 mi Calm Calm - N/A   Partly Cloudy
10:53 PM 70.0 °F 68.0 °F 93% 29.96 in 9.0 mi Calm Calm - N/A   Clear
11:53 PM 69.1 °F 66.9 °F 93% 29.95 in 8.0 mi Calm Calm - N/A   Clear